TimeCST,TemperatureF,Dew PointF,Humidity,Sea Level PressureIn,VisibilityMPH,Wind Direction,Wind SpeedMPH,Gust SpeedMPH,PrecipitationIn,Events,Conditions,WindDirDegrees,DateUTC
12:53 AM,50.0,39.9,68,30.31,10.0,NE,3.5,-,N/A,,Clear,40,2013-01-27 06:53:00
1:53 AM,48.9,39.0,69,30.31,10.0,ENE,3.5,-,N/A,,Clear,70,2013-01-27 07:53:00
2:53 AM,48.9,41.0,74,30.32,10.0,NNE,3.5,-,N/A,,Mostly Cloudy,30,2013-01-27 08:53:00
3:53 AM,48.0,37.9,68,30.31,10.0,ENE,8.1,-,N/A,,Clear,70,2013-01-27 09:53:00
4:53 AM,48.0,34.0,58,30.33,10.0,East,6.9,-,N/A,,Partly Cloudy,80,2013-01-27 10:53:00
5:46 AM,48.2,33.8,58,30.34,10.0,East,8.1,-,N/A,,Mostly Cloudy,80,2013-01-27 11:46:00
5:53 AM,48.0,34.0,58,30.34,10.0,East,6.9,-,N/A,,Mostly Cloudy,80,2013-01-27 11:53:00
6:53 AM,46.9,33.1,59,30.35,10.0,ENE,6.9,-,N/A,,Mostly Cloudy,70,2013-01-27 12:53:00
7:00 AM,46.4,33.8,62,30.36,10.0,ENE,5.8,-,N/A,,Scattered Clouds,70,2013-01-27 13:00:00
7:53 AM,50.0,32.0,50,30.36,10.0,East,5.8,-,N/A,,Clear,80,2013-01-27 13:53:00
8:53 AM,54.0,33.1,45,30.38,10.0,East,5.8,-,N/A,,Clear,100,2013-01-27 14:53:00
9:53 AM,59.0,35.1,41,30.39,10.0,East,6.9,-,N/A,,Clear,90,2013-01-27 15:53:00
10:53 AM,63.0,36.0,37,30.38,10.0,East,5.8,-,N/A,,Clear,90,2013-01-27 16:53:00
11:53 AM,66.0,39.9,38,30.35,10.0,ENE,5.8,-,N/A,,Clear,60,2013-01-27 17:53:00
12:53 PM,68.0,41.0,37,30.32,10.0,East,5.8,-,N/A,,Clear,80,2013-01-27 18:53:00
1:53 PM,69.1,41.0,36,30.31,10.0,East,8.1,-,N/A,,Clear,100,2013-01-27 19:53:00
2:53 PM,70.0,42.1,36,30.30,10.0,ESE,5.8,-,N/A,,Clear,120,2013-01-27 20:53:00
3:53 PM,68.0,43.0,40,30.32,10.0,ESE,5.8,-,N/A,,Clear,110,2013-01-27 21:53:00
4:53 PM,66.0,46.0,48,30.32,10.0,East,4.6,-,N/A,,Clear,90,2013-01-27 22:53:00
5:53 PM,63.0,46.9,56,30.33,10.0,East,3.5,-,N/A,,Clear,80,2013-01-27 23:53:00
6:53 PM,62.1,46.9,58,30.34,10.0,NE,6.9,-,N/A,,Overcast,50,2013-01-28 00:53:00
7:53 PM,62.1,46.9,58,30.36,8.0,East,9.2,-,N/A,,Overcast,80,2013-01-28 01:53:00
8:53 PM,60.1,46.9,62,30.35,8.0,East,10.4,-,N/A,,Mostly Cloudy,90,2013-01-28 02:53:00
9:53 PM,59.0,48.0,67,30.35,10.0,East,10.4,-,N/A,,Clear,90,2013-01-28 03:53:00
10:53 PM,59.0,48.9,69,30.34,10.0,ESE,9.2,-,N/A,,Mostly Cloudy,110,2013-01-28 04:53:00
11:53 PM,57.0,50.0,77,30.33,10.0,ESE,5.8,-,N/A,,Clear,110,2013-01-28 05:53:00